AFR027 KLAX-LFPG

Flight info

Callsign AFR027
Flight time N/A
Altitude 37000
Route ORCKA5 LAS Q70 BLIPP Q842 WINEN DCT KU60O DCT KU72Q DCT KU09W DCT 49N100W 5430N09000W 58N080W/N0495F390 5930N07000W DCT RODBO/M084F390 DCT PIDSO DCT 61N050W 61N040W 60N030W 58N020W DCT SUNOT/N0485F390 DCT KESIX DCT REVNU/N0484F410 DCT CON DCT OSGAR DCT MORAG DCT NUCHU L18 MID/N0467F290 Y803 SFD UM605 BIBAX
Aircraft A359/H-SABDE2E3GHIJ1J2J3J4J5M1P2RWXYZ/LB1D1

Departure

Time 2026-04-21 22:48
Airport Los Angeles International Airport (KLAX)

Arrival

Time N/A
Airport Charles de Gaulle International Airport (LFPG)
Time Latitude Longitude Altitude Speed Heading
2026-04-21 22:08 33.94484 -118.41592 103 ft 0 kts 83°
2026-04-21 22:37 33.94483 -118.41594 99 ft 2 kts 83°
2026-04-21 22:37 33.94480 -118.41624 99 ft 4 kts 83°
2026-04-21 22:37 33.94478 -118.41650 98 ft 4 kts 74°
2026-04-21 22:37 33.94466 -118.41678 100 ft 4 kts 41°
2026-04-21 22:38 33.94445 -118.41690 98 ft 4 kts 354°
2026-04-21 22:38 33.94419 -118.41686 98 ft 4 kts 353°
2026-04-21 22:38 33.94410 -118.41685 100 ft 0 kts 353°
2026-04-21 22:41 33.94411 -118.41685 101 ft 0 kts 353°
2026-04-21 22:41 33.94451 -118.41691 99 ft 10 kts 352°
2026-04-21 22:41 33.94521 -118.41702 101 ft 10 kts 353°
2026-04-21 22:41 33.94592 -118.41712 101 ft 10 kts 354°
2026-04-21 22:42 33.94645 -118.41673 101 ft 9 kts 60°
2026-04-21 22:42 33.94662 -118.41595 102 ft 11 kts 60°
2026-04-21 22:42 33.94724 -118.41566 103 ft 9 kts 13°
2026-04-21 22:42 33.94754 -118.41514 103 ft 9 kts 79°
2026-04-21 22:43 33.94765 -118.41438 101 ft 10 kts 80°
2026-04-21 22:43 33.94784 -118.41350 100 ft 11 kts 82°
2026-04-21 22:43 33.94795 -118.41261 102 ft 11 kts 81°
2026-04-21 22:43 33.94805 -118.41168 103 ft 11 kts 83°
2026-04-21 22:44 33.94815 -118.41074 102 ft 11 kts 83°
2026-04-21 22:44 33.94825 -118.40976 103 ft 12 kts 83°
2026-04-21 22:44 33.94835 -118.40875 103 ft 13 kts 84°
2026-04-21 22:44 33.94846 -118.40770 100 ft 13 kts 83°
2026-04-21 22:45 33.94858 -118.40655 101 ft 14 kts 83°
2026-04-21 22:45 33.94870 -118.40537 100 ft 14 kts 83°
2026-04-21 22:45 33.94882 -118.40415 100 ft 15 kts 83°
2026-04-21 22:45 33.94895 -118.40291 100 ft 15 kts 83°
2026-04-21 22:46 33.94908 -118.40165 101 ft 15 kts 83°
2026-04-21 22:46 33.94922 -118.40035 99 ft 16 kts 83°
2026-04-21 22:46 33.94952 -118.39931 100 ft 12 kts 43°
2026-04-21 22:46 33.95027 -118.39926 101 ft 9 kts 337°
2026-04-21 22:47 33.95040 -118.39955 103 ft 2 kts 281°
2026-04-21 22:47 33.95040 -118.39967 103 ft 0 kts 272°
2026-04-21 22:47 33.95040 -118.39979 102 ft 6 kts 269°
2026-04-21 22:47 33.95018 -118.40179 106 ft 52 kts 262°
2026-04-21 22:48 33.94940 -118.40927 103 ft 126 kts 263°
2026-04-21 22:48 33.94822 -118.42182 392 ft 161 kts 262°
2026-04-21 22:48 33.94719 -118.43509 1361 ft 156 kts 259°
2026-04-21 22:48 33.94606 -118.44809 2172 ft 154 kts 258°
2026-04-21 22:49 33.94470 -118.46057 2597 ft 152 kts 257°
2026-04-21 22:49 33.94288 -118.47369 2785 ft 165 kts 256°
2026-04-21 22:49 33.94076 -118.48753 2999 ft 177 kts 256°
2026-04-21 22:49 33.93877 -118.50273 3216 ft 191 kts 257°
2026-04-21 22:50 33.93681 -118.51955 3407 ft 210 kts 258°
2026-04-21 22:50 33.93474 -118.53745 3626 ft 226 kts 259°
2026-04-21 22:50 33.93264 -118.55679 3919 ft 240 kts 260°
2026-04-21 22:50 33.93051 -118.57704 4351 ft 247 kts 261°
2026-04-21 22:51 33.92836 -118.59818 4845 ft 254 kts 261°
2026-04-21 22:51 33.92453 -118.61847 5527 ft 250 kts 244°
2026-04-21 22:51 33.91403 -118.63459 6275 ft 246 kts 218°
2026-04-21 22:51 33.89868 -118.64444 6934 ft 248 kts 205°
2026-04-21 22:52 33.88257 -118.65135 7461 ft 254 kts 198°
2026-04-21 22:52 33.86476 -118.65378 8082 ft 263 kts 176°
2026-04-21 22:52 33.84782 -118.64484 8723 ft 276 kts 144°
2026-04-21 22:52 33.83730 -118.62507 9209 ft 296 kts 109°
2026-04-21 22:53 33.83703 -118.59991 9659 ft 309 kts 79°
2026-04-21 22:53 33.84642 -118.57659 10189 ft 316 kts 51°
2026-04-21 22:53 33.86109 -118.55641 10521 ft 326 kts 47°
2026-04-21 22:53 33.87592 -118.53525 10818 ft 336 kts 51°
2026-04-21 22:54 33.88994 -118.51219 11111 ft 346 kts 55°
2026-04-21 22:54 33.90350 -118.48784 11391 ft 356 kts 56°
2026-04-21 22:54 33.91707 -118.46228 11649 ft 367 kts 57°
2026-04-21 22:54 33.93069 -118.43583 11919 ft 377 kts 58°
2026-04-21 22:55 33.94489 -118.40873 12186 ft 387 kts 55°
2026-04-21 22:55 33.96057 -118.38200 12449 ft 395 kts 51°
2026-04-21 22:55 33.97702 -118.35514 12749 ft 403 kts 53°
2026-04-21 22:55 33.99327 -118.32722 13043 ft 411 kts 54°
2026-04-21 22:56 34.00917 -118.29812 13331 ft 419 kts 56°
2026-04-21 22:56 34.01977 -118.27807 13520 ft 423 kts 56°
2026-04-21 22:56 34.03631 -118.24837 13774 ft 430 kts 53°
2026-04-21 22:56 34.05366 -118.21855 13910 ft 439 kts 53°
2026-04-21 22:57 34.07124 -118.18815 14209 ft 443 kts 54°
2026-04-21 22:57 34.08880 -118.15748 14550 ft 445 kts 54°
2026-04-21 22:57 34.10639 -118.12657 14878 ft 448 kts 54°
2026-04-21 22:57 34.12400 -118.09550 15219 ft 451 kts 54°
2026-04-21 22:58 34.14172 -118.06426 15528 ft 454 kts 54°
2026-04-21 22:58 34.15960 -118.03254 15850 ft 457 kts 55°
2026-04-21 22:58 34.17747 -118.00078 16176 ft 459 kts 55°
2026-04-21 22:58 34.19546 -117.96876 16527 ft 462 kts 55°
2026-04-21 22:59 34.21357 -117.93653 16829 ft 465 kts 55°
2026-04-21 22:59 34.23175 -117.90414 17192 ft 467 kts 55°
2026-04-21 22:59 34.25006 -117.87151 17469 ft 471 kts 55°
2026-04-21 22:59 34.26846 -117.83869 17848 ft 472 kts 55°
2026-04-21 23:00 34.28692 -117.80571 18190 ft 475 kts 55°
2026-04-21 23:00 34.30546 -117.77257 18513 ft 477 kts 55°
2026-04-21 23:00 34.32411 -117.73923 18797 ft 479 kts 55°
2026-04-21 23:00 34.34289 -117.70575 18973 ft 483 kts 54°
2026-04-21 23:01 34.36312 -117.67330 19238 ft 484 kts 50°
2026-04-21 23:01 34.38457 -117.64179 19536 ft 485 kts 48°
2026-04-21 23:01 34.40660 -117.61077 19794 ft 487 kts 47°
2026-04-21 23:01 34.42889 -117.57986 20035 ft 489 kts 47°
2026-04-21 23:02 34.45127 -117.54879 20298 ft 490 kts 47°
2026-04-21 23:02 34.47368 -117.51748 20583 ft 492 kts 47°
2026-04-21 23:02 34.49579 -117.48637 20841 ft 495 kts 47°
2026-04-21 23:02 34.51850 -117.45422 21128 ft 495 kts 49°
2026-04-21 23:03 34.54086 -117.42243 21489 ft 495 kts 49°
2026-04-21 23:03 34.56321 -117.39059 21719 ft 498 kts 49°
2026-04-21 23:03 34.58572 -117.35848 21947 ft 500 kts 49°
2026-04-21 23:03 34.60829 -117.32626 22204 ft 502 kts 49°
2026-04-21 23:04 34.63091 -117.29395 22457 ft 504 kts 49°
2026-04-21 23:04 34.65368 -117.26140 22695 ft 506 kts 49°
2026-04-21 23:04 34.67650 -117.22874 22915 ft 508 kts 49°
2026-04-21 23:04 34.69944 -117.19590 23134 ft 510 kts 49°
2026-04-21 23:05 34.72240 -117.16299 23286 ft 513 kts 49°
2026-04-21 23:05 34.74547 -117.12990 23621 ft 512 kts 50°
2026-04-21 23:05 34.76847 -117.09687 23832 ft 513 kts 50°
2026-04-21 23:05 34.79166 -117.06355 24002 ft 517 kts 50°
2026-04-21 23:06 34.81499 -117.02999 24089 ft 522 kts 50°
2026-04-21 23:06 34.83844 -116.99623 24333 ft 523 kts 50°
2026-04-21 23:06 34.86163 -116.96280 24539 ft 524 kts 50°
2026-04-21 23:06 34.88515 -116.92886 24727 ft 526 kts 50°
2026-04-21 23:07 34.90876 -116.89475 24944 ft 527 kts 50°
2026-04-21 23:07 34.93238 -116.86060 25109 ft 528 kts 50°
2026-04-21 23:07 34.95605 -116.82636 25356 ft 529 kts 50°
2026-04-21 23:07 34.97977 -116.79200 25577 ft 530 kts 50°
2026-04-21 23:08 35.00357 -116.75748 25747 ft 532 kts 50°
2026-04-21 23:08 35.02740 -116.72290 25951 ft 534 kts 50°
2026-04-21 23:08 35.05130 -116.68817 26144 ft 536 kts 50°
2026-04-21 23:08 35.07535 -116.65320 26325 ft 538 kts 50°
2026-04-21 23:09 35.09939 -116.61822 26539 ft 539 kts 50°
2026-04-21 23:09 35.12354 -116.58304 26723 ft 541 kts 50°
2026-04-21 23:09 35.14768 -116.54783 26941 ft 543 kts 50°
2026-04-21 23:09 35.17197 -116.51235 27244 ft 543 kts 50°
2026-04-21 23:10 35.19621 -116.47692 27444 ft 545 kts 50°
2026-04-21 23:10 35.22052 -116.44134 27649 ft 547 kts 50°
2026-04-21 23:10 35.24494 -116.40558 27837 ft 549 kts 50°
2026-04-21 23:10 35.26947 -116.36962 28049 ft 551 kts 50°
2026-04-21 23:11 35.29402 -116.33359 28247 ft 552 kts 50°
2026-04-21 23:11 35.31863 -116.29743 28434 ft 554 kts 50°
2026-04-21 23:11 35.34334 -116.26107 28643 ft 556 kts 50°
2026-04-21 23:11 35.36811 -116.22460 28823 ft 557 kts 50°
2026-04-21 23:12 35.39290 -116.18806 29050 ft 558 kts 50°
2026-04-21 23:12 35.41771 -116.15146 29230 ft 560 kts 50°
2026-04-21 23:12 35.44269 -116.11456 29449 ft 562 kts 50°
2026-04-21 23:12 35.46767 -116.07764 29637 ft 564 kts 50°
2026-04-21 23:13 35.49271 -116.04057 29840 ft 566 kts 50°
2026-04-21 23:13 35.51785 -116.00333 30035 ft 567 kts 50°
2026-04-21 23:13 35.54304 -115.96597 30204 ft 569 kts 50°
2026-04-21 23:13 35.56833 -115.92841 30348 ft 570 kts 51°
2026-04-21 23:14 35.59352 -115.89096 30613 ft 569 kts 51°
2026-04-21 23:14 35.61889 -115.85321 30739 ft 572 kts 51°
2026-04-21 23:14 35.64425 -115.81540 30913 ft 574 kts 51°
2026-04-21 23:14 35.66965 -115.77752 31090 ft 575 kts 51°
2026-04-21 23:15 35.69506 -115.73957 31293 ft 576 kts 51°
2026-04-21 23:15 35.72052 -115.70151 31525 ft 576 kts 51°
2026-04-21 23:15 35.74594 -115.66348 31737 ft 576 kts 51°
2026-04-21 23:15 35.77138 -115.62537 31937 ft 576 kts 51°
2026-04-21 23:16 35.79678 -115.58728 32225 ft 574 kts 51°
2026-04-21 23:16 35.82211 -115.54925 32475 ft 574 kts 51°
2026-04-21 23:16 35.84741 -115.51122 32717 ft 574 kts 51°
2026-04-21 23:16 35.87272 -115.47314 32939 ft 574 kts 51°
2026-04-21 23:17 35.89804 -115.43499 33110 ft 575 kts 51°
2026-04-21 23:17 35.92333 -115.39684 33322 ft 575 kts 51°
2026-04-21 23:17 35.94862 -115.35866 33519 ft 574 kts 51°
2026-04-21 23:17 35.97389 -115.32047 33678 ft 575 kts 51°
2026-04-21 23:18 35.99910 -115.28231 33977 ft 572 kts 51°
2026-04-21 23:18 36.02419 -115.24430 34174 ft 571 kts 51°
2026-04-21 23:18 36.04888 -115.20685 34388 ft 570 kts 51°
2026-04-21 23:18 36.07479 -115.16909 34581 ft 568 kts 45°
2026-04-21 23:19 36.10298 -115.13575 34773 ft 566 kts 41°
2026-04-21 23:19 36.13217 -115.10318 34983 ft 565 kts 40°
2026-04-21 23:19 36.16165 -115.07109 35123 ft 564 kts 39°
2026-04-21 23:19 36.19122 -115.03928 35325 ft 563 kts 39°
2026-04-21 23:20 36.22082 -115.00759 35510 ft 562 kts 39°
2026-04-21 23:20 36.25038 -114.97590 35726 ft 561 kts 40°
2026-04-21 23:20 36.27978 -114.94429 35937 ft 559 kts 40°
2026-04-21 23:20 36.30911 -114.91266 36125 ft 559 kts 40°
2026-04-21 23:21 36.33836 -114.88103 36299 ft 558 kts 40°
2026-04-21 23:21 36.36758 -114.84935 36445 ft 558 kts 40°
2026-04-21 23:21 36.39676 -114.81769 36623 ft 557 kts 40°
2026-04-21 23:21 36.42590 -114.78602 36743 ft 557 kts 40°
2026-04-21 23:22 36.48445 -114.72231 36747 ft 562 kts 40°
2026-04-21 23:22 36.54334 -114.65816 36738 ft 562 kts 40°
2026-04-21 23:23 36.60217 -114.59393 36735 ft 562 kts 40°
2026-04-21 23:23 36.66088 -114.52969 36737 ft 562 kts 40°
2026-04-21 23:24 36.72123 -114.46808 36743 ft 560 kts 32°
2026-04-21 23:24 36.78647 -114.41490 36737 ft 561 kts 30°
2026-04-21 23:25 36.85254 -114.36314 36743 ft 561 kts 30°
2026-04-21 23:25 36.91879 -114.31142 36757 ft 561 kts 30°
2026-04-21 23:26 36.98481 -114.25956 36767 ft 561 kts 30°
2026-04-21 23:26 37.05082 -114.20747 36781 ft 561 kts 30°
2026-04-21 23:27 37.11684 -114.15523 36779 ft 562 kts 30°
2026-04-21 23:27 37.18274 -114.10298 36791 ft 562 kts 31°
2026-04-21 23:28 37.24871 -114.05058 36787 ft 562 kts 31°
2026-04-21 23:28 37.31465 -113.99809 36804 ft 559 kts 31°
2026-04-21 23:29 37.38046 -113.94559 36796 ft 558 kts 31°